Location: Newark
(43.4306°N, 0.3089°E)
Time: 18:02:29
(UTC+00:00)

S-56A Canister/Altair - Pass Details

Date: 23 August 2019
Orbit: 633 x 2499 km, 38.9° (Epoch: 14 September)

Event Time Altitude Azimuth Distance (km) Brightness Sun altitude
Rises 00:10:34 0° 268° (W) 2,918 - -34.9°
Reaches altitude 10° 00:12:49 10° 262° (W) 2,028 - -34.9°
Maximum altitude 00:17:06 43° 190° (S) 978 - -34.9°
Drops below altitude 10° 00:22:17 10° 119° (ESE) 2,473 - -34.8°
Sets 00:25:19 0° 114° (ESE) 3,649 - -34.7°
